Flag for Angola Weather past 2 weeks in Cabinda, Angola

Now
72 °F

More clouds than sun.


Feels Like: 69 °F
Forecast: 70 / 74 °F
Wind: 7 mph from South

Location: Pointe Airport-Noire

Current Time: Aug 28, 2015 at 7:14:55 PM

Latest Report: Aug 28, 2015 at 6:00 PM


Visibility: N/A

Pressure: 29.86 "Hg

Humidity: 88%

Dew point: 68 °F

Location of CabindaLocation

Historic Weather in Cabinda — Graph

°F

Cabinda temperature yesterday

Maximum temperature yesterday: 79 °F (at 2:00 PM)
Minimum temperature yesterday: 70 °F (at 7:00 AM)
Average temperature yesterday: 73 °F

Past Weeks' High & Low Weather Summary

 TemperatureHumidityPressure
High79 °F (Aug 15, 12:00 PM)100% (Aug 27, 8:00 AM)30.04 "Hg (Aug 27, 8:00 AM)
Low68 °F (Aug 14, 12:00 AM)61% (Aug 20, 2:00 PM)29.86 "Hg (Aug 19, 3:00 PM)
Average73 °F86%29.96 "Hg
* Reported Aug 13 5:00 PM — Aug 28 5:00 PM, Cabinda, Weather by CustomWeather, © 2015

Note: Actual official high and low records may vary slightly from our data, if they occured in-between our weather recording intervals... More about our weather records

Advertising

Cabinda weather history for previous 24 hours

 ConditionsComfort  
Time TempWeatherWind HumidityBarometerVisibility
5:00 PM
Fri, Aug 28
73 °FOvercast.8 mph83%29.86 "HgN/A
4:00 PM75 °FPartly sunny.8 mph78%29.86 "HgN/A
3:00 PM77 °FPartly sunny.9 mph74%29.86 "HgN/A
2:00 PM77 °FBroken clouds.9 mph69%29.89 "HgN/A
1:00 PM79 °FMore clouds than sun.7 mph65%29.92 "HgN/A
12:00 PM75 °FPartly sunny.7 mph78%29.98 "HgN/A
11:00 AM75 °FPartly sunny.9 mph78%29.98 "HgN/A
10:00 AM73 °FPartly sunny.9 mph83%29.98 "Hg5 mi
9:00 AM73 °FOvercast.5 mph83%29.98 "Hg5 mi
8:00 AM72 °FLow clouds.6 mph88%29.95 "Hg4 mi
7:00 AM72 °FMore clouds than sun.7 mph88%29.95 "Hg4 mi
6:00 AM72 °FMostly cloudy.3 mph88%29.95 "Hg4 mi
5:00 AM72 °FMostly cloudy.5 mph88%29.95 "Hg4 mi
4:00 AM72 °FMostly cloudy.2 mph88%29.95 "Hg4 mi
3:00 AM72 °FMostly cloudy.5 mph88%29.95 "Hg4 mi
2:00 AM72 °FMostly cloudy.9 mph88%29.95 "Hg4 mi
1:00 AM72 °FMostly cloudy.7 mph88%29.98 "Hg4 mi
12:00 AM72 °FMostly cloudy.3 mph88%29.98 "Hg4 mi
11:00 PM
Thu, Aug 27
72 °FMostly cloudy.2 mph88%30.01 "Hg4 mi
10:00 PM72 °FMostly cloudy.3 mph94%29.98 "Hg4 mi
9:00 PM72 °FMostly cloudy.5 mph88%29.95 "Hg4 mi
8:00 PM72 °FPassing clouds.6 mph88%29.92 "Hg5 mi
7:00 PM72 °FOvercast.7 mph88%29.92 "Hg5 mi
Weather by CustomWeather, © 2015

See weather overviewHow to use our weather pages